Location: Chacón
(10.5789°N, 66.9317°W)
Time: 16:01:48
(UTC+00:00)

Cosmos 1727 Rocket - Pass Details

Date: 06 August 2024
Orbit: 960 x 997 km, 82.9° (Epoch: 08 September)

Event Time Altitude Azimuth Distance (km) Brightness Sun altitude
Rises 00:16:04 0° 14° (NNE) 3,649 7.1 -20.8°
Reaches altitude 10° 00:18:53 10° 24° (NNE) 2,698 6.3 -21.4°
Enters shadow 00:23:05 29° 64° (ENE) 1,678 4.9 -22.4°
